Time,TemperatureF,DewpointF,PressureIn,WindDirection,WindDirectionDegrees,WindSpeedMPH,WindSpeedGustMPH,Humidity,HourlyPrecipIn,Conditions,Clouds,dailyrainin,SoftwareType,DateUTC
2013-07-21 00:01:00,72.6,66.1,30.03,NNE,23,8.0,9.0,80,0.00,,,0.00,VWS V14.01,2013-07-21 10:01:00,
2013-07-21 00:06:00,72.5,66.0,30.03,NNE,12,8.0,10.0,80,0.00,,,0.00,VWS V14.01,2013-07-21 10:06:00,
2013-07-21 00:11:00,72.5,66.0,30.03,NNE,26,10.0,10.0,80,0.00,,,0.00,VWS V14.01,2013-07-21 10:11:00,
2013-07-21 00:17:00,72.6,66.1,30.03,ENE,76,4.0,6.0,80,0.00,,,0.00,VWS V14.01,2013-07-21 10:17:00,
2013-07-21 00:22:00,72.7,66.2,30.03,ENE,57,5.0,6.0,80,0.00,,,0.00,VWS V14.01,2013-07-21 10:22:00,
2013-07-21 00:27:00,72.6,66.1,30.03,North,3,11.0,11.0,80,0.00,,,0.00,VWS V14.01,2013-07-21 10:27:00,
2013-07-21 00:32:00,72.6,66.1,30.03,NNE,16,8.0,8.0,80,0.00,,,0.00,VWS V14.01,2013-07-21 10:32:00,
2013-07-21 00:37:00,72.7,66.2,30.03,NE,47,6.0,9.0,80,0.00,,,0.00,VWS V14.01,2013-07-21 10:37:00,
2013-07-21 00:42:00,72.7,66.5,30.03,NE,44,9.0,9.0,81,0.00,,,0.00,VWS V14.01,2013-07-21 10:42:00,
2013-07-21 00:47:00,72.6,66.4,30.02,NNE,14,7.0,7.0,81,0.00,,,0.00,VWS V14.01,2013-07-21 10:47:00,
2013-07-21 00:52:00,72.5,66.7,30.02,ENE,62,8.0,8.0,82,0.00,,,0.00,VWS V14.01,2013-07-21 10:52:00,
2013-07-21 00:57:00,72.4,66.6,30.01,NNE,31,8.0,8.0,82,0.00,,,0.00,VWS V14.01,2013-07-21 10:57:00,
2013-07-21 01:02:00,72.3,66.5,30.01,NE,52,4.0,6.0,82,0.00,,,0.00,VWS V14.01,2013-07-21 11:02:00,
2013-07-21 01:07:00,72.2,66.1,30.01,ENE,64,5.0,5.0,81,0.00,,,0.00,VWS V14.01,2013-07-21 11:07:00,
2013-07-21 01:12:00,72.3,65.8,30.01,NE,52,7.0,11.0,80,0.00,,,0.00,VWS V14.01,2013-07-21 11:12:00,
2013-07-21 01:18:00,72.4,65.2,30.00,NE,37,9.0,9.0,78,0.00,,,0.00,VWS V14.01,2013-07-21 11:18:00,
2013-07-21 01:22:00,72.5,65.6,30.01,NE,52,10.0,12.0,79,0.00,,,0.00,VWS V14.01,2013-07-21 11:22:00,
2013-07-21 01:28:00,72.5,65.6,30.00,ENE,57,7.0,13.0,79,0.00,,,0.00,VWS V14.01,2013-07-21 11:28:00,
2013-07-21 01:33:00,72.4,65.2,30.00,NE,44,13.0,17.0,78,0.00,,,0.00,VWS V14.01,2013-07-21 11:33:00,
2013-07-21 01:38:00,72.5,64.9,30.00,NNE,28,7.0,7.0,77,0.00,,,0.00,VWS V14.01,2013-07-21 11:38:00,
2013-07-21 01:43:00,72.5,64.9,30.00,NNE,21,13.0,13.0,77,0.00,,,0.00,VWS V14.01,2013-07-21 11:43:00,
2013-07-21 01:48:00,72.6,64.6,30.00,NE,42,13.0,13.0,76,0.00,,,0.00,VWS V14.01,2013-07-21 11:48:00,
2013-07-21 01:53:00,72.7,63.5,29.99,NNE,26,12.0,12.0,73,0.00,,,0.00,VWS V14.01,2013-07-21 11:53:00,
2013-07-21 01:58:00,73.0,63.5,29.99,NNE,33,9.0,12.0,72,0.00,,,0.00,VWS V14.01,2013-07-21 11:58:00,
2013-07-21 02:03:00,73.0,63.5,29.99,NE,52,9.0,9.0,72,0.00,,,0.00,VWS V14.01,2013-07-21 12:03:00,
2013-07-21 02:09:00,73.0,63.8,29.99,NNE,17,14.0,17.0,73,0.00,,,0.00,VWS V14.01,2013-07-21 12:09:00,
2013-07-21 02:14:00,72.9,63.8,29.98,North,2,7.0,13.0,73,0.00,,,0.00,VWS V14.01,2013-07-21 12:14:00,
2013-07-21 02:19:00,72.9,64.9,29.98,NNE,14,7.0,10.0,76,0.00,,,0.00,VWS V14.01,2013-07-21 12:19:00,
2013-07-21 02:24:00,72.7,64.7,29.98,North,4,7.0,10.0,76,0.00,,,0.00,VWS V14.01,2013-07-21 12:24:00,
2013-07-21 02:29:00,72.7,64.7,29.98,North,360,13.0,13.0,76,0.00,,,0.00,VWS V14.01,2013-07-21 12:29:00,
2013-07-21 02:34:00,72.5,64.5,29.98,NE,39,8.0,9.0,76,0.00,,,0.00,VWS V14.01,2013-07-21 12:34:00,
2013-07-21 02:39:00,72.5,64.9,29.97,NNE,21,13.0,13.0,77,0.00,,,0.00,VWS V14.01,2013-07-21 12:39:00,
2013-07-21 02:44:00,72.5,63.8,29.97,North,1,8.0,14.0,74,0.00,,,0.00,VWS V14.01,2013-07-21 12:44:00,
2013-07-21 02:49:00,72.6,63.8,29.97,NNE,26,11.0,12.0,74,0.00,,,0.00,VWS V14.01,2013-07-21 12:49:00,
2013-07-21 02:54:00,72.5,63.8,29.97,North,9,10.0,13.0,74,0.00,,,0.00,VWS V14.01,2013-07-21 12:54:00,
2013-07-21 02:59:00,72.5,63.8,29.97,NNE,17,16.0,16.0,74,0.00,,,0.00,VWS V14.01,2013-07-21 12:59:00,
2013-07-21 03:05:00,72.6,63.5,29.97,NNE,21,14.0,15.0,73,0.00,,,0.00,VWS V14.01,2013-07-21 13:05:00,
2013-07-21 03:10:00,72.7,63.2,29.97,North,5,8.0,14.0,72,0.00,,,0.00,VWS V14.01,2013-07-21 13:10:00,
2013-07-21 03:15:00,72.7,63.5,29.97,NNE,31,11.0,11.0,73,0.00,,,0.00,VWS V14.01,2013-07-21 13:15:00,
2013-07-21 03:20:00,72.7,63.2,29.97,NNE,21,10.0,14.0,72,0.00,,,0.00,VWS V14.01,2013-07-21 13:20:00,
2013-07-21 03:25:00,72.7,63.5,29.97,NNE,33,11.0,14.0,73,0.00,,,0.00,VWS V14.01,2013-07-21 13:25:00,
2013-07-21 03:30:00,72.8,63.7,29.96,NE,47,13.0,13.0,73,0.00,,,0.00,VWS V14.01,2013-07-21 13:30:00,
2013-07-21 03:35:00,72.7,63.5,29.97,NNE,26,12.0,12.0,73,0.00,,,0.00,VWS V14.01,2013-07-21 13:35:00,
2013-07-21 03:40:00,72.8,64.0,29.97,NNE,21,10.0,15.0,74,0.00,,,0.00,VWS V14.01,2013-07-21 13:40:00,
2013-07-21 03:45:00,72.8,64.4,29.96,NE,51,8.0,11.0,75,0.00,,,0.00,VWS V14.01,2013-07-21 13:45:00,
2013-07-21 03:50:00,72.6,64.6,29.96,NE,37,16.0,16.0,76,0.00,,,0.00,VWS V14.01,2013-07-21 13:50:00,
2013-07-21 03:56:00,72.6,65.0,29.97,NE,41,9.0,12.0,77,0.00,,,0.00,VWS V14.01,2013-07-21 13:56:00,
2013-07-21 04:01:00,72.5,64.9,29.97,NE,51,13.0,13.0,77,0.00,,,0.00,VWS V14.01,2013-07-21 14:01:00,
2013-07-21 04:06:00,72.4,65.2,29.96,NE,40,8.0,8.0,78,0.00,,,0.00,VWS V14.01,2013-07-21 14:06:00,
2013-07-21 04:11:00,72.3,65.4,29.96,NNE,19,10.0,11.0,79,0.00,,,0.00,VWS V14.01,2013-07-21 14:11:00,
2013-07-21 04:16:00,72.3,65.4,29.96,NE,34,13.0,13.0,79,0.00,,,0.00,VWS V14.01,2013-07-21 14:16:00,
2013-07-21 04:21:00,72.3,65.4,29.96,NE,34,10.0,10.0,79,0.00,,,0.00,VWS V14.01,2013-07-21 14:21:00,
2013-07-21 04:26:00,72.3,65.8,29.97,NNE,16,11.0,15.0,80,0.00,,,0.00,VWS V14.01,2013-07-21 14:26:00,
2013-07-21 04:31:00,72.2,65.7,29.96,NNE,14,10.0,12.0,80,0.00,,,0.00,VWS V14.01,2013-07-21 14:31:00,
2013-07-21 04:36:00,72.1,65.6,29.97,NNE,12,10.0,11.0,80,0.00,,,0.00,VWS V14.01,2013-07-21 14:36:00,
2013-07-21 04:41:00,72.2,66.1,29.97,NNE,28,7.0,7.0,81,0.00,,,0.00,VWS V14.01,2013-07-21 14:41:00,
2013-07-21 04:47:00,72.0,65.5,29.97,NNW,348,11.0,11.0,80,0.00,,,0.00,VWS V14.01,2013-07-21 14:47:00,
2013-07-21 04:52:00,71.9,65.0,29.97,NE,45,12.0,12.0,79,0.00,,,0.00,VWS V14.01,2013-07-21 14:52:00,
2013-07-21 04:57:00,72.0,65.1,29.97,NNE,21,10.0,10.0,79,0.00,,,0.00,VWS V14.01,2013-07-21 14:57:00,
2013-07-21 05:02:00,71.9,65.0,29.97,NNE,29,8.0,12.0,79,0.00,,,0.00,VWS V14.01,2013-07-21 15:02:00,
2013-07-21 05:07:00,71.9,65.0,29.97,NW,321,9.0,10.0,79,0.00,,,0.00,VWS V14.01,2013-07-21 15:07:00,
2013-07-21 05:12:00,71.9,65.0,29.97,NNE,18,8.0,8.0,79,0.00,,,0.00,VWS V14.01,2013-07-21 15:12:00,
2013-07-21 05:17:00,71.9,65.0,29.96,NNE,33,4.0,5.0,79,0.00,,,0.00,VWS V14.01,2013-07-21 15:17:00,
2013-07-21 05:22:00,71.9,65.4,29.97,NE,34,9.0,9.0,80,0.00,,,0.00,VWS V14.01,2013-07-21 15:22:00,
2013-07-21 05:27:00,72.0,65.5,29.97,NE,54,5.0,8.0,80,0.00,,,0.00,VWS V14.01,2013-07-21 15:27:00,
2013-07-21 05:33:00,71.9,65.8,29.97,NE,41,7.0,7.0,81,0.00,,,0.00,VWS V14.01,2013-07-21 15:33:00,
2013-07-21 05:38:00,72.0,65.9,29.97,North,2,7.0,9.0,81,0.00,,,0.00,VWS V14.01,2013-07-21 15:38:00,
2013-07-21 05:43:00,72.0,66.2,29.97,NNE,23,5.0,6.0,82,0.00,,,0.00,VWS V14.01,2013-07-21 15:43:00,
2013-07-21 05:48:00,71.9,66.1,29.97,NNE,23,8.0,8.0,82,0.00,,,0.00,VWS V14.01,2013-07-21 15:48:00,
2013-07-21 05:53:00,71.8,65.7,29.97,NNE,24,2.0,2.0,81,0.00,,,0.00,VWS V14.01,2013-07-21 15:53:00,
2013-07-21 05:58:00,71.7,65.9,29.97,NNE,24,11.0,11.0,82,0.00,,,0.00,VWS V14.01,2013-07-21 15:58:00,
2013-07-21 06:03:00,71.8,66.0,29.97,NNE,31,5.0,8.0,82,0.00,,,0.00,VWS V14.01,2013-07-21 16:03:00,
2013-07-21 06:04:00,71.8,66.0,29.97,ENE,64,5.0,12.0,82,0.00,,,0.00,VWS V14.01,2013-07-21 16:04:00,
2013-07-21 06:09:00,71.9,66.5,29.97,NE,53,3.0,3.0,83,0.00,,,0.00,VWS V14.01,2013-07-21 16:09:00,
2013-07-21 06:14:00,72.0,66.6,29.97,NE,44,7.0,7.0,83,0.00,,,0.00,VWS V14.01,2013-07-21 16:14:00,
2013-07-21 06:19:00,72.0,66.6,29.97,NNE,17,13.0,13.0,83,0.00,,,0.00,VWS V14.01,2013-07-21 16:19:00,
2013-07-21 06:24:00,72.1,66.7,29.97,NNE,21,4.0,4.0,83,0.00,,,0.00,VWS V14.01,2013-07-21 16:24:00,
2013-07-21 06:29:00,72.1,66.7,29.97,NE,51,10.0,12.0,83,0.00,,,0.00,VWS V14.01,2013-07-21 16:29:00,
2013-07-21 06:34:00,72.5,67.1,29.98,NNE,27,8.0,8.0,83,0.00,,,0.00,VWS V14.01,2013-07-21 16:34:00,
2013-07-21 06:39:00,72.8,67.3,29.98,NE,54,10.0,12.0,83,0.00,,,0.00,VWS V14.01,2013-07-21 16:39:00,
2013-07-21 06:44:00,72.8,67.3,29.98,NNE,26,7.0,10.0,83,0.00,,,0.00,VWS V14.01,2013-07-21 16:44:00,
2013-07-21 06:50:00,72.9,67.4,29.98,NNE,12,5.0,10.0,83,0.00,,,0.00,VWS V14.01,2013-07-21 16:50:00,
2013-07-21 06:55:00,73.3,67.5,29.98,NE,45,3.0,5.0,82,0.00,,,0.00,VWS V14.01,2013-07-21 16:55:00,
2013-07-21 07:00:00,73.5,67.7,29.98,NE,54,4.0,5.0,82,0.00,,,0.00,VWS V14.01,2013-07-21 17:00:00,
2013-07-21 07:05:00,74.0,68.5,29.99,ENE,59,8.0,8.0,83,0.00,,,0.00,VWS V14.01,2013-07-21 17:05:00,
2013-07-21 07:10:00,73.9,67.7,29.99,NE,39,8.0,8.0,81,0.00,,,0.00,VWS V14.01,2013-07-21 17:10:00,
2013-07-21 07:15:00,73.5,67.7,29.99,NE,54,9.0,9.0,82,0.00,,,0.00,VWS V14.01,2013-07-21 17:15:00,
2013-07-21 07:20:00,73.6,67.8,29.99,ENE,73,3.0,4.0,82,0.00,,,0.00,VWS V14.01,2013-07-21 17:20:00,
2013-07-21 07:25:00,73.7,67.9,30.00,NNE,27,4.0,4.0,82,0.00,,,0.00,VWS V14.01,2013-07-21 17:25:00,
2013-07-21 07:30:00,73.7,67.9,30.00,East,95,2.0,3.0,82,0.00,,,0.00,VWS V14.01,2013-07-21 17:30:00,
2013-07-21 07:35:00,73.5,67.7,30.00,ESE,103,14.0,14.0,82,0.00,,,0.00,VWS V14.01,2013-07-21 17:35:00,
2013-07-21 07:40:00,73.3,67.8,30.00,ENE,61,10.0,11.0,83,0.00,,,0.00,VWS V14.01,2013-07-21 17:40:00,
2013-07-21 07:45:00,73.4,67.6,30.00,ENE,63,10.0,10.0,82,0.00,,,0.00,VWS V14.01,2013-07-21 17:45:00,
2013-07-21 07:50:00,73.2,67.4,30.00,NE,50,5.0,6.0,82,0.00,,,0.00,VWS V14.01,2013-07-21 17:50:00,
2013-07-21 07:56:00,73.3,67.8,30.00,East,100,6.0,6.0,83,0.00,,,0.00,VWS V14.01,2013-07-21 17:56:00,
2013-07-21 08:01:00,73.5,68.0,30.00,ENE,71,7.0,7.0,83,0.00,,,0.00,VWS V14.01,2013-07-21 18:01:00,
2013-07-21 08:06:00,74.0,67.8,30.00,East,87,8.0,8.0,81,0.00,,,0.00,VWS V14.01,2013-07-21 18:06:00,
2013-07-21 08:11:00,74.0,66.7,30.01,NE,34,14.0,14.0,78,0.00,,,0.00,VWS V14.01,2013-07-21 18:11:00,
2013-07-21 08:16:00,74.0,66.0,30.00,NNE,22,8.0,8.0,76,0.00,,,0.00,VWS V14.01,2013-07-21 18:16:00,
2013-07-21 08:21:00,74.2,66.2,30.01,NNE,18,18.0,18.0,76,0.00,,,0.00,VWS V14.01,2013-07-21 18:21:00,
2013-07-21 08:26:00,74.3,65.9,30.00,NNE,13,9.0,11.0,75,0.00,,,0.00,VWS V14.01,2013-07-21 18:26:00,
2013-07-21 08:31:00,74.5,66.1,30.00,NE,55,8.0,8.0,75,0.00,,,0.00,VWS V14.01,2013-07-21 18:31:00,
2013-07-21 08:36:00,74.5,65.7,30.00,ENE,57,8.0,10.0,74,0.00,,,0.00,VWS V14.01,2013-07-21 18:36:00,
2013-07-21 08:41:00,74.3,65.1,30.00,NNE,28,4.0,5.0,73,0.00,,,0.00,VWS V14.01,2013-07-21 18:41:00,
2013-07-21 08:46:00,74.9,66.1,30.00,East,79,2.0,4.0,74,0.00,,,0.00,VWS V14.01,2013-07-21 18:46:00,
2013-07-21 08:51:00,75.7,67.6,30.01,NE,53,11.0,12.0,76,0.00,,,0.00,VWS V14.01,2013-07-21 18:51:00,
2013-07-21 08:56:00,75.5,67.0,30.01,ENE,74,8.0,12.0,75,0.00,,,0.00,VWS V14.01,2013-07-21 18:56:00,
2013-07-21 09:01:00,75.2,66.7,30.01,NE,47,10.0,10.0,75,0.00,,,0.00,VWS V14.01,2013-07-21 19:01:00,
2013-07-21 09:06:00,75.0,66.6,30.01,ENE,59,6.0,8.0,75,0.00,,,0.00,VWS V14.01,2013-07-21 19:06:00,
2013-07-21 09:11:00,75.4,67.3,30.01,East,98,9.0,11.0,76,0.00,,,0.00,VWS V14.01,2013-07-21 19:11:00,
2013-07-21 09:16:00,75.4,67.7,30.01,East,95,8.0,9.0,77,0.00,,,0.00,VWS V14.01,2013-07-21 19:16:00,
2013-07-21 09:21:00,75.7,68.0,30.01,ENE,66,12.0,12.0,77,0.00,,,0.00,VWS V14.01,2013-07-21 19:21:00,
2013-07-21 09:26:00,75.3,68.0,30.01,East,95,9.0,14.0,78,0.00,,,0.00,VWS V14.01,2013-07-21 19:26:00,
2013-07-21 09:31:00,75.3,68.0,30.01,NNE,21,8.0,10.0,78,0.00,,,0.00,VWS V14.01,2013-07-21 19:31:00,
2013-07-21 09:36:00,75.5,68.2,30.01,East,80,7.0,7.0,78,0.00,,,0.00,VWS V14.01,2013-07-21 19:36:00,
2013-07-21 09:41:00,76.1,69.5,30.01,ENE,64,11.0,13.0,80,0.00,,,0.00,VWS V14.01,2013-07-21 19:41:00,
2013-07-21 09:46:00,76.2,67.7,30.01,ENE,58,14.0,17.0,75,0.00,,,0.00,VWS V14.01,2013-07-21 19:46:00,
2013-07-21 09:51:00,75.7,67.2,30.01,ENE,57,11.0,14.0,75,0.00,,,0.00,VWS V14.01,2013-07-21 19:51:00,
2013-07-21 09:56:00,76.7,68.2,30.01,ENE,77,10.0,12.0,75,0.00,,,0.00,VWS V14.01,2013-07-21 19:56:00,
2013-07-21 10:02:00,76.9,67.2,30.01,East,97,11.0,11.0,72,0.00,,,0.00,VWS V14.01,2013-07-21 20:02:00,
2013-07-21 10:07:00,76.3,67.0,30.01,NNE,21,10.0,15.0,73,0.00,,,0.00,VWS V14.01,2013-07-21 20:07:00,
2013-07-21 10:12:00,76.2,68.1,30.01,NE,53,13.0,13.0,76,0.00,,,0.00,VWS V14.01,2013-07-21 20:12:00,
2013-07-21 10:17:00,75.8,66.9,30.01,NE,53,12.0,12.0,74,0.00,,,0.00,VWS V14.01,2013-07-21 20:17:00,
2013-07-21 10:22:00,76.1,67.6,30.01,East,101,8.0,10.0,75,0.00,,,0.00,VWS V14.01,2013-07-21 20:22:00,
2013-07-21 10:27:00,77.0,67.3,30.01,ENE,64,12.0,13.0,72,0.00,,,0.00,VWS V14.01,2013-07-21 20:27:00,
2013-07-21 10:32:00,77.1,67.0,30.00,East,95,18.0,18.0,71,0.00,,,0.00,VWS V14.01,2013-07-21 20:32:00,
2013-07-21 10:37:00,77.5,67.8,30.00,ESE,102,11.0,18.0,72,0.00,,,0.00,VWS V14.01,2013-07-21 20:37:00,
2013-07-21 10:42:00,77.0,66.5,30.01,East,95,9.0,10.0,70,0.00,,,0.00,VWS V14.01,2013-07-21 20:42:00,
2013-07-21 10:47:00,76.8,67.5,30.01,ENE,71,12.0,13.0,73,0.00,,,0.00,VWS V14.01,2013-07-21 20:47:00,
2013-07-21 10:52:00,76.8,67.5,30.00,East,96,9.0,10.0,73,0.00,,,0.00,VWS V14.01,2013-07-21 20:52:00,
2013-07-21 10:57:00,77.1,67.4,30.00,NE,54,9.0,15.0,72,0.00,,,0.00,VWS V14.01,2013-07-21 20:57:00,
2013-07-21 11:02:00,77.4,67.7,30.00,East,81,11.0,11.0,72,0.00,,,0.00,VWS V14.01,2013-07-21 21:02:00,
2013-07-21 11:07:00,77.8,67.7,30.00,ENE,76,14.0,17.0,71,0.00,,,0.00,VWS V14.01,2013-07-21 21:07:00,
2013-07-21 11:12:00,78.0,65.7,30.00,NE,46,10.0,16.0,66,0.00,,,0.00,VWS V14.01,2013-07-21 21:12:00,
2013-07-21 11:17:00,77.4,68.5,30.00,East,96,16.0,17.0,74,0.00,,,0.00,VWS V14.01,2013-07-21 21:17:00,
2013-07-21 11:22:00,77.6,68.7,30.00,ESE,104,9.0,12.0,74,0.00,,,0.00,VWS V14.01,2013-07-21 21:22:00,
2013-07-21 11:27:00,77.4,68.1,30.00,ENE,58,17.0,17.0,73,0.00,,,0.00,VWS V14.01,2013-07-21 21:27:00,
2013-07-21 11:32:00,77.6,68.7,30.00,East,80,19.0,19.0,74,0.00,,,0.00,VWS V14.01,2013-07-21 21:32:00,
2013-07-21 11:37:00,77.3,67.6,30.00,NE,45,12.0,12.0,72,0.00,,,0.00,VWS V14.01,2013-07-21 21:37:00,
2013-07-21 11:42:00,77.0,68.1,29.99,NE,40,6.0,8.0,74,0.00,,,0.00,VWS V14.01,2013-07-21 21:42:00,
2013-07-21 11:47:00,77.5,67.8,30.00,ENE,59,11.0,12.0,72,0.00,,,0.00,VWS V14.01,2013-07-21 21:47:00,
2013-07-21 11:52:00,77.9,68.6,29.99,ENE,73,15.0,19.0,73,0.00,,,0.00,VWS V14.01,2013-07-21 21:52:00,
2013-07-21 11:57:00,78.1,68.3,29.99,ENE,66,10.0,14.0,72,0.00,,,0.00,VWS V14.01,2013-07-21 21:57:00,
2013-07-21 12:02:00,77.7,66.3,29.99,ESE,105,12.0,17.0,68,0.00,,,0.00,VWS V14.01,2013-07-21 22:02:00,
2013-07-21 12:07:00,78.1,66.3,29.99,East,91,12.0,12.0,67,0.00,,,0.00,VWS V14.01,2013-07-21 22:07:00,
2013-07-21 12:12:00,78.0,67.8,29.99,ENE,61,14.0,14.0,71,0.00,,,0.00,VWS V14.01,2013-07-21 22:12:00,
2013-07-21 12:17:00,77.5,67.4,29.99,NE,54,12.0,12.0,71,0.00,,,0.00,VWS V14.01,2013-07-21 22:17:00,
2013-07-21 12:22:00,77.9,64.8,29.99,ENE,72,8.0,9.0,64,0.00,,,0.00,VWS V14.01,2013-07-21 22:22:00,
2013-07-21 12:27:00,78.5,65.8,29.99,NE,42,15.0,15.0,65,0.00,,,0.00,VWS V14.01,2013-07-21 22:27:00,
2013-07-21 12:32:00,78.6,64.5,29.98,NE,51,15.0,15.0,62,0.00,,,0.00,VWS V14.01,2013-07-21 22:32:00,
2013-07-21 12:37:00,78.8,65.2,29.98,ESE,120,14.0,14.0,63,0.00,,,0.00,VWS V14.01,2013-07-21 22:37:00,
2013-07-21 12:42:00,78.3,63.8,29.98,NE,50,11.0,12.0,61,0.00,,,0.00,VWS V14.01,2013-07-21 22:42:00,
2013-07-21 12:47:00,78.5,65.8,29.98,ENE,67,15.0,15.0,65,0.00,,,0.00,VWS V14.01,2013-07-21 22:47:00,
2013-07-21 12:52:00,78.9,67.0,29.98,ESE,102,13.0,18.0,67,0.00,,,0.00,VWS V14.01,2013-07-21 22:52:00,
2013-07-21 12:57:00,78.0,66.2,29.98,East,98,12.0,12.0,67,0.00,,,0.00,VWS V14.01,2013-07-21 22:57:00,
2013-07-21 13:02:00,78.1,66.7,29.97,NE,55,12.0,14.0,68,0.00,,,0.00,VWS V14.01,2013-07-21 23:02:00,
2013-07-21 13:07:00,77.7,67.6,29.97,NE,52,14.0,16.0,71,0.00,,,0.00,VWS V14.01,2013-07-21 23:07:00,
2013-07-21 13:12:00,77.2,67.5,29.97,NE,54,10.0,13.0,72,0.00,,,0.00,VWS V14.01,2013-07-21 23:12:00,
2013-07-21 13:17:00,77.5,66.9,29.97,ENE,71,14.0,14.0,70,0.00,,,0.00,VWS V14.01,2013-07-21 23:17:00,
2013-07-21 13:23:00,77.3,66.8,29.97,East,80,16.0,16.0,70,0.00,,,0.00,VWS V14.01,2013-07-21 23:23:00,
2013-07-21 13:28:00,77.4,66.9,29.97,ENE,71,12.0,15.0,70,0.00,,,0.00,VWS V14.01,2013-07-21 23:28:00,
2013-07-21 13:33:00,78.0,67.8,29.97,NE,48,13.0,13.0,71,0.00,,,0.00,VWS V14.01,2013-07-21 23:33:00,
2013-07-21 13:38:00,77.9,68.6,29.97,ENE,73,13.0,14.0,73,0.00,,,0.00,VWS V14.01,2013-07-21 23:38:00,
2013-07-21 13:43:00,76.6,68.1,29.97,ENE,57,9.0,16.0,75,0.00,,,0.00,VWS V14.01,2013-07-21 23:43:00,
2013-07-21 13:48:00,77.1,67.8,29.97,ENE,59,8.0,8.0,73,0.00,,,0.00,VWS V14.01,2013-07-21 23:48:00,
2013-07-21 13:53:00,76.8,68.7,29.97,ESE,113,17.0,17.0,76,0.00,,,0.00,VWS V14.01,2013-07-21 23:53:00,
2013-07-21 13:58:00,76.7,68.6,29.97,ENE,63,8.0,10.0,76,0.00,,,0.00,VWS V14.01,2013-07-21 23:58:00,
2013-07-21 14:03:00,77.0,68.5,29.96,ENE,61,14.0,14.0,75,0.00,,,0.00,VWS V14.01,2013-07-22 00:03:00,
2013-07-21 14:08:00,76.9,68.0,29.96,ENE,71,11.0,11.0,74,0.00,,,0.00,VWS V14.01,2013-07-22 00:08:00,
2013-07-21 14:13:00,77.6,67.9,29.96,ENE,71,12.0,14.0,72,0.00,,,0.00,VWS V14.01,2013-07-22 00:13:00,
2013-07-21 14:18:00,77.3,66.8,29.96,ENE,62,17.0,17.0,70,0.00,,,0.00,VWS V14.01,2013-07-22 00:18:00,
2013-07-21 14:23:00,77.2,67.5,29.96,East,80,16.0,16.0,72,0.00,,,0.00,VWS V14.01,2013-07-22 00:23:00,
2013-07-21 14:28:00,76.9,67.6,29.96,NE,44,15.0,18.0,73,0.00,,,0.00,VWS V14.01,2013-07-22 00:28:00,
2013-07-21 14:33:00,77.6,66.6,29.96,ENE,66,10.0,13.0,69,0.00,,,0.00,VWS V14.01,2013-07-22 00:33:00,
2013-07-21 14:38:00,77.5,67.4,29.96,NE,44,14.0,15.0,71,0.00,,,0.00,VWS V14.01,2013-07-22 00:38:00,
2013-07-21 14:43:00,77.1,66.6,29.96,SE,127,14.0,17.0,70,0.00,,,0.00,VWS V14.01,2013-07-22 00:43:00,
2013-07-21 14:48:00,77.0,66.5,29.95,NE,34,12.0,12.0,70,0.00,,,0.00,VWS V14.01,2013-07-22 00:48:00,
2013-07-21 14:53:00,76.9,66.4,29.96,East,87,11.0,12.0,70,0.00,,,0.00,VWS V14.01,2013-07-22 00:53:00,
2013-07-21 14:58:00,77.0,66.1,29.96,East,82,17.0,17.0,69,0.00,,,0.00,VWS V14.01,2013-07-22 00:58:00,
2013-07-21 15:03:00,76.6,64.8,29.96,ENE,59,16.0,16.0,67,0.00,,,0.00,VWS V14.01,2013-07-22 01:03:00,
2013-07-21 15:08:00,76.9,65.5,29.95,NE,54,8.0,8.0,68,0.00,,,0.00,VWS V14.01,2013-07-22 01:08:00,
2013-07-21 15:13:00,76.8,66.7,29.96,ENE,57,15.0,17.0,71,0.00,,,0.00,VWS V14.01,2013-07-22 01:13:00,
2013-07-21 15:18:00,76.7,67.0,29.95,East,96,15.0,16.0,72,0.00,,,0.00,VWS V14.01,2013-07-22 01:18:00,
2013-07-21 15:23:00,76.6,66.9,29.95,ENE,66,12.0,15.0,72,0.00,,,0.00,VWS V14.01,2013-07-22 01:23:00,
2013-07-21 15:28:00,76.4,67.5,29.95,NE,53,10.0,10.0,74,0.00,,,0.00,VWS V14.01,2013-07-22 01:28:00,
2013-07-21 15:33:00,76.1,67.2,29.95,East,100,10.0,10.0,74,0.00,,,0.00,VWS V14.01,2013-07-22 01:33:00,
2013-07-21 15:38:00,76.6,68.1,29.95,East,81,7.0,8.0,75,0.00,,,0.00,VWS V14.01,2013-07-22 01:38:00,
2013-07-21 15:43:00,76.3,67.4,29.95,ENE,67,10.0,11.0,74,0.00,,,0.00,VWS V14.01,2013-07-22 01:43:00,
2013-07-21 15:49:00,76.4,68.3,29.95,East,86,12.0,19.0,76,0.00,,,0.00,VWS V14.01,2013-07-22 01:49:00,
2013-07-21 15:54:00,76.4,67.9,29.95,ENE,76,11.0,12.0,75,0.00,,,0.00,VWS V14.01,2013-07-22 01:54:00,
2013-07-21 15:59:00,76.3,67.8,29.95,ENE,65,11.0,14.0,75,0.00,,,0.00,VWS V14.01,2013-07-22 01:59:00,
2013-07-21 16:04:00,76.5,67.6,29.95,ENE,70,16.0,16.0,74,0.00,,,0.00,VWS V14.01,2013-07-22 02:04:00,
2013-07-21 16:09:00,76.3,67.8,29.95,NE,50,13.0,13.0,75,0.00,,,0.00,VWS V14.01,2013-07-22 02:09:00,
2013-07-21 16:14:00,76.1,67.2,29.95,ENE,58,13.0,17.0,74,0.00,,,0.00,VWS V14.01,2013-07-22 02:14:00,
2013-07-21 16:19:00,75.8,67.7,29.95,NE,41,10.0,11.0,76,0.00,,,0.00,VWS V14.01,2013-07-22 02:19:00,
2013-07-21 16:24:00,75.6,67.5,29.95,ENE,63,8.0,9.0,76,0.00,,,0.00,VWS V14.01,2013-07-22 02:24:00,
2013-07-21 16:29:00,75.7,67.6,29.95,East,82,14.0,14.0,76,0.00,,,0.00,VWS V14.01,2013-07-22 02:29:00,
2013-07-21 16:34:00,75.4,67.3,29.95,ENE,65,11.0,13.0,76,0.00,,,0.00,VWS V14.01,2013-07-22 02:34:00,
2013-07-21 16:39:00,75.2,67.1,29.95,ENE,65,9.0,13.0,76,0.00,,,0.00,VWS V14.01,2013-07-22 02:39:00,
2013-07-21 16:44:00,75.1,67.0,29.95,ENE,63,12.0,14.0,76,0.00,,,0.00,VWS V14.01,2013-07-22 02:44:00,
2013-07-21 16:49:00,74.9,66.8,29.95,NE,55,13.0,13.0,76,0.00,,,0.00,VWS V14.01,2013-07-22 02:49:00,
2013-07-21 16:54:00,74.8,67.1,29.95,NE,43,8.0,11.0,77,0.00,,,0.00,VWS V14.01,2013-07-22 02:54:00,
2013-07-21 16:59:00,74.6,66.9,29.95,NE,36,9.0,9.0,77,0.00,,,0.00,VWS V14.01,2013-07-22 02:59:00,
2013-07-21 17:04:00,74.6,67.3,29.95,NE,40,7.0,8.0,78,0.00,,,0.00,VWS V14.01,2013-07-22 03:04:00,
2013-07-21 17:09:00,74.5,67.2,29.95,ENE,61,9.0,10.0,78,0.00,,,0.00,VWS V14.01,2013-07-22 03:09:00,
2013-07-21 17:14:00,74.6,67.3,29.95,NE,40,16.0,16.0,78,0.00,,,0.00,VWS V14.01,2013-07-22 03:14:00,
2013-07-21 17:19:00,74.6,67.7,29.95,NNE,27,8.0,9.0,79,0.00,,,0.00,VWS V14.01,2013-07-22 03:19:00,
2013-07-21 17:24:00,74.5,67.6,29.95,ENE,61,10.0,11.0,79,0.00,,,0.00,VWS V14.01,2013-07-22 03:24:00,
2013-07-21 17:29:00,74.5,67.6,29.95,NNE,21,10.0,12.0,79,0.00,,,0.00,VWS V14.01,2013-07-22 03:29:00,
2013-07-21 17:35:00,74.4,67.8,29.95,NE,34,10.0,10.0,80,0.00,,,0.00,VWS V14.01,2013-07-22 03:35:00,
2013-07-21 17:40:00,74.2,67.6,29.95,NE,45,10.0,12.0,80,0.00,,,0.00,VWS V14.01,2013-07-22 03:40:00,
2013-07-21 17:45:00,74.2,67.6,29.95,NE,47,10.0,10.0,80,0.00,,,0.00,VWS V14.01,2013-07-22 03:45:00,
2013-07-21 17:50:00,74.2,67.6,29.95,NE,52,9.0,10.0,80,0.00,,,0.00,VWS V14.01,2013-07-22 03:50:00,
2013-07-21 17:55:00,74.2,67.6,29.95,NE,38,11.0,11.0,80,0.00,,,0.00,VWS V14.01,2013-07-22 03:55:00,
2013-07-21 18:00:00,74.2,68.0,29.96,NE,42,11.0,11.0,81,0.00,,,0.00,VWS V14.01,2013-07-22 04:00:00,
2013-07-21 18:01:00,74.2,68.0,29.96,NE,44,6.0,8.0,81,0.00,,,0.00,VWS V14.01,2013-07-22 04:01:00,
2013-07-21 18:02:00,74.2,68.0,29.96,NE,52,6.0,7.0,81,0.00,,,0.00,VWS V14.01,2013-07-22 04:02:00,
2013-07-21 18:08:00,74.2,68.0,29.96,NE,38,9.0,9.0,81,0.00,,,0.00,VWS V14.01,2013-07-22 04:08:00,
2013-07-21 18:13:00,74.1,67.9,29.96,NE,52,7.0,10.0,81,0.00,,,0.00,VWS V14.01,2013-07-22 04:13:00,
2013-07-21 18:18:00,74.1,68.3,29.96,NE,52,8.0,11.0,82,0.00,,,0.00,VWS V14.01,2013-07-22 04:18:00,
2013-07-21 18:23:00,74.0,68.2,29.96,ENE,57,8.0,8.0,82,0.00,,,0.00,VWS V14.01,2013-07-22 04:23:00,
2013-07-21 18:28:00,74.0,68.2,29.96,NNE,33,8.0,10.0,82,0.00,,,0.00,VWS V14.01,2013-07-22 04:28:00,
2013-07-21 18:33:00,74.0,68.2,29.96,ENE,64,10.0,12.0,82,0.00,,,0.00,VWS V14.01,2013-07-22 04:33:00,
2013-07-21 18:38:00,74.0,68.2,29.97,ENE,61,5.0,9.0,82,0.00,,,0.00,VWS V14.01,2013-07-22 04:38:00,
2013-07-21 18:43:00,74.0,68.2,29.97,NE,39,8.0,8.0,82,0.00,,,0.00,VWS V14.01,2013-07-22 04:43:00,
2013-07-21 18:48:00,74.0,68.5,29.97,ENE,59,8.0,8.0,83,0.00,,,0.00,VWS V14.01,2013-07-22 04:48:00,
2013-07-21 18:53:00,74.0,68.5,29.97,NE,44,3.0,6.0,83,0.00,,,0.00,VWS V14.01,2013-07-22 04:53:00,
2013-07-21 18:58:00,74.0,68.5,29.97,NE,51,6.0,9.0,83,0.00,,,0.00,VWS V14.01,2013-07-22 04:58:00,
2013-07-21 19:03:00,74.0,68.9,29.97,East,83,7.0,7.0,84,0.00,,,0.00,VWS V14.01,2013-07-22 05:03:00,
2013-07-21 19:08:00,74.0,68.9,29.97,ENE,59,7.0,10.0,84,0.00,,,0.00,VWS V14.01,2013-07-22 05:08:00,
2013-07-21 19:13:00,74.0,69.2,29.98,ENE,60,6.0,7.0,85,0.00,,,0.00,VWS V14.01,2013-07-22 05:13:00,
2013-07-21 19:18:00,73.9,69.1,29.98,NNE,26,6.0,9.0,85,0.00,,,0.00,VWS V14.01,2013-07-22 05:18:00,
2013-07-21 19:23:00,73.9,69.1,29.98,NE,39,6.0,6.0,85,0.00,,,0.00,VWS V14.01,2013-07-22 05:23:00,
2013-07-21 19:28:00,73.9,69.1,29.98,ENE,69,4.0,6.0,85,0.00,,,0.00,VWS V14.01,2013-07-22 05:28:00,
2013-07-21 19:33:00,73.9,69.1,29.98,East,101,6.0,6.0,85,0.00,,,0.00,VWS V14.01,2013-07-22 05:33:00,
2013-07-21 19:38:00,74.0,69.6,29.98,ENE,77,9.0,9.0,86,0.00,,,0.00,VWS V14.01,2013-07-22 05:38:00,
2013-07-21 19:43:00,73.7,69.6,29.98,ENE,58,11.0,11.0,87,0.00,,,0.00,VWS V14.01,2013-07-22 05:43:00,
2013-07-21 19:49:00,73.6,69.8,29.98,NE,52,5.0,7.0,88,0.00,,,0.00,VWS V14.01,2013-07-22 05:49:00,
2013-07-21 19:54:00,73.4,69.6,29.98,NE,42,7.0,9.0,88,0.00,,,0.00,VWS V14.01,2013-07-22 05:54:00,
2013-07-21 19:59:00,73.2,69.4,29.99,ENE,59,6.0,6.0,88,0.00,,,0.00,VWS V14.01,2013-07-22 05:59:00,
2013-07-21 20:04:00,73.1,69.3,29.99,NNE,24,8.0,8.0,88,0.00,,,0.00,VWS V14.01,2013-07-22 06:04:00,
2013-07-21 20:09:00,73.2,69.4,29.99,NNE,16,4.0,4.0,88,0.00,,,0.00,VWS V14.01,2013-07-22 06:09:00,
2013-07-21 20:14:00,73.3,69.5,29.99,NE,44,4.0,7.0,88,0.00,,,0.00,VWS V14.01,2013-07-22 06:14:00,
2013-07-21 20:19:00,73.3,69.5,29.99,NE,53,4.0,5.0,88,0.00,,,0.00,VWS V14.01,2013-07-22 06:19:00,
2013-07-21 20:24:00,73.3,69.5,29.99,ENE,64,9.0,9.0,88,0.00,,,0.00,VWS V14.01,2013-07-22 06:24:00,
2013-07-21 20:29:00,73.2,69.4,30.00,ENE,76,8.0,10.0,88,0.00,,,0.00,VWS V14.01,2013-07-22 06:29:00,
2013-07-21 20:34:00,72.7,69.3,30.00,NE,47,7.0,9.0,89,0.00,,,0.00,VWS V14.01,2013-07-22 06:34:00,
2013-07-21 20:39:00,72.3,69.5,30.00,ENE,75,3.0,4.0,91,0.00,,,0.00,VWS V14.01,2013-07-22 06:39:00,
2013-07-21 20:44:00,72.0,69.6,30.00,NNE,32,4.0,6.0,92,0.01,,,0.01,VWS V14.01,2013-07-22 06:44:00,
2013-07-21 20:49:00,71.8,69.7,30.00,NNE,27,4.0,4.0,93,0.02,,,0.02,VWS V14.01,2013-07-22 06:49:00,
2013-07-21 20:54:00,71.6,69.5,30.00,NNE,21,3.0,3.0,93,0.02,,,0.02,VWS V14.01,2013-07-22 06:54:00,
2013-07-21 20:59:00,71.3,69.2,30.00,NNE,24,4.0,10.0,93,0.02,,,0.02,VWS V14.01,2013-07-22 06:59:00,
2013-07-21 21:04:00,71.3,69.2,30.00,NE,34,5.0,5.0,93,0.02,,,0.02,VWS V14.01,2013-07-22 07:04:00,
2013-07-21 21:09:00,71.3,68.9,30.00,NNE,21,3.0,6.0,92,0.02,,,0.02,VWS V14.01,2013-07-22 07:09:00,
2013-07-21 21:14:00,71.3,68.9,30.00,NE,39,6.0,6.0,92,0.02,,,0.02,VWS V14.01,2013-07-22 07:14:00,
2013-07-21 21:19:00,71.4,68.6,30.00,NE,45,6.0,6.0,91,0.02,,,0.02,VWS V14.01,2013-07-22 07:19:00,
2013-07-21 21:24:00,71.5,68.7,30.00,ENE,58,5.0,5.0,91,0.02,,,0.02,VWS V14.01,2013-07-22 07:24:00,
2013-07-21 21:29:00,71.6,68.5,30.00,ENE,66,8.0,8.0,90,0.02,,,0.02,VWS V14.01,2013-07-22 07:29:00,
2013-07-21 21:34:00,71.8,68.7,30.00,NE,38,5.0,7.0,90,0.02,,,0.02,VWS V14.01,2013-07-22 07:34:00,
2013-07-21 21:39:00,72.0,68.9,30.00,NE,42,5.0,6.0,90,0.02,,,0.02,VWS V14.01,2013-07-22 07:39:00,
2013-07-21 21:44:00,72.2,68.8,30.00,NNE,23,8.0,9.0,89,0.02,,,0.02,VWS V14.01,2013-07-22 07:44:00,
2013-07-21 21:49:00,72.3,68.9,30.00,NE,42,4.0,6.0,89,0.02,,,0.02,VWS V14.01,2013-07-22 07:49:00,
2013-07-21 21:54:00,72.4,69.0,30.00,North,349,6.0,7.0,89,0.00,,,0.02,VWS V14.01,2013-07-22 07:54:00,
2013-07-21 22:03:00,72.4,69.0,30.01,NE,38,5.0,5.0,89,0.00,,,0.02,VWS V14.01,2013-07-22 08:03:00,
2013-07-21 22:08:00,72.4,69.0,30.01,NNE,30,6.0,6.0,89,0.00,,,0.02,VWS V14.01,2013-07-22 08:08:00,
2013-07-21 22:13:00,72.4,69.0,30.01,East,80,6.0,8.0,89,0.00,,,0.02,VWS V14.01,2013-07-22 08:13:00,
2013-07-21 22:18:00,72.4,69.0,30.01,NE,41,6.0,8.0,89,0.00,,,0.02,VWS V14.01,2013-07-22 08:18:00,
2013-07-21 22:23:00,72.2,69.1,30.00,ENE,78,8.0,10.0,90,0.00,,,0.02,VWS V14.01,2013-07-22 08:23:00,
2013-07-21 22:28:00,72.2,69.1,30.01,NE,38,7.0,8.0,90,0.00,,,0.02,VWS V14.01,2013-07-22 08:28:00,
2013-07-21 22:33:00,72.2,69.1,30.00,NE,47,5.0,6.0,90,0.00,,,0.02,VWS V14.01,2013-07-22 08:33:00,
2013-07-21 22:38:00,72.1,69.0,30.00,NNE,23,8.0,8.0,90,0.00,,,0.02,VWS V14.01,2013-07-22 08:38:00,
2013-07-21 22:43:00,72.1,69.0,30.00,North,5,5.0,6.0,90,0.00,,,0.02,VWS V14.01,2013-07-22 08:43:00,
2013-07-21 22:48:00,72.1,69.0,30.01,North,9,6.0,9.0,90,0.00,,,0.02,VWS V14.01,2013-07-22 08:48:00,
2013-07-21 22:53:00,72.2,68.8,30.01,North,10,4.0,8.0,89,0.00,,,0.02,VWS V14.01,2013-07-22 08:53:00,
2013-07-21 22:58:00,72.3,68.9,30.01,NNE,26,3.0,5.0,89,0.00,,,0.02,VWS V14.01,2013-07-22 08:58:00,
2013-07-21 23:04:00,72.3,68.9,30.01,NNE,21,5.0,6.0,89,0.00,,,0.02,VWS V14.01,2013-07-22 09:04:00,
2013-07-21 23:09:00,72.6,68.8,30.00,North,9,9.0,10.0,88,0.00,,,0.02,VWS V14.01,2013-07-22 09:09:00,
2013-07-21 23:14:00,72.8,69.0,30.00,NNE,14,4.0,8.0,88,0.00,,,0.02,VWS V14.01,2013-07-22 09:14:00,
2013-07-21 23:19:00,72.9,68.8,30.00,NNW,343,4.0,5.0,87,0.00,,,0.02,VWS V14.01,2013-07-22 09:19:00,
2013-07-21 23:24:00,73.2,69.1,30.01,NE,35,9.0,9.0,87,0.00,,,0.02,VWS V14.01,2013-07-22 09:24:00,
2013-07-21 23:29:00,73.2,68.8,30.00,NE,52,4.0,4.0,86,0.00,,,0.02,VWS V14.01,2013-07-22 09:29:00,
2013-07-21 23:34:00,73.3,68.9,30.00,NNE,19,11.0,11.0,86,0.00,,,0.02,VWS V14.01,2013-07-22 09:34:00,
2013-07-21 23:39:00,73.3,68.9,30.00,NNE,18,6.0,8.0,86,0.00,,,0.02,VWS V14.01,2013-07-22 09:39:00,
2013-07-21 23:44:00,73.3,68.9,30.00,NE,38,4.0,6.0,86,0.00,,,0.02,VWS V14.01,2013-07-22 09:44:00,
2013-07-21 23:49:00,73.3,68.9,30.00,NNE,22,8.0,9.0,86,0.00,,,0.02,VWS V14.01,2013-07-22 09:49:00,
2013-07-21 23:55:00,73.3,69.2,30.00,NNE,32,7.0,7.0,87,0.00,,,0.02,VWS V14.01,2013-07-22 09:55:00,
2013-07-21 23:59:00,73.3,69.2,30.00,ENE,59,6.0,6.0,87,0.00,,,0.02,VWS V14.01,2013-07-22 09:59:00,